Location: Guadanolo
(41.9167°N, 12.9333°E)
Time: 15:01:42
(UTC+00:00)

MetOp-B - Pass Details

Date: 16 September 2019
Orbit: 819 x 821 km, 98.7° (Epoch: 16 October)

Event Time Altitude Azimuth Distance (km) Brightness Sun altitude
Exits shadow 19:54:01 60° 21° (NNE) 941 4.4 -28.4°
Drops below altitude 10° 19:58:30 10° 351° (N) 2,425 7.1 -29.1°
Sets 20:00:52 0° 349° (N) 3,361 7.9 -29.4°
